When you browse on this site, cookies collect data to enhance your experience and personalize the content and advertising you see.
Visit our Privacy Policy to learn more. By continuing to use the site, you agree to this use of cookies and data.
  • In Netherlands
  • List of Countries
  • For 7 days
  • Water Temperature
  • Satellite Maps
  • Weather Map
  • Weather Widgets
  • user-avatar
    Login

    Hourly Weather Saidpur

    Today, 19 March, Tuesday

    Time Temperature Precipitation Wind Pressure Humidity
    00:00 +27°C° 0 mm 3 mps 754 mmHg 28%
    01:00 +27°C° 0 mm 2 mps 754 mmHg 29%
    02:00 +26°C° 0 mm 2 mps 754 mmHg 30%
    03:00 +25°C° 0 mm 2 mps 753 mmHg 31%
    04:00 +25°C° 0 mm 1 mps 754 mmHg 33%
    05:00 +24°C° 0 mm 1 mps 754 mmHg 34%
    06:00 +24°C° 0 mm 1 mps 754 mmHg 36%
    07:00 +26°C° 0 mm 1 mps 754 mmHg 33%
    08:00 +27°C° 0 mm 1 mps 755 mmHg 31%
    09:00 +29°C° 0 mm 2 mps 755 mmHg 29%
    10:00 +31°C° 0 mm 2 mps 755 mmHg 25%
    11:00 +33°C° 0 mm 3 mps 755 mmHg 21%
    12:00 +35°C° 0 mm 4 mps 755 mmHg 18%
    13:00 +35°C° 0 mm 4 mps 754 mmHg 16%
    14:00 +36°C° 0 mm 4 mps 753 mmHg 15%
    15:00 +36°C° 0 mm 4 mps 752 mmHg 14%
    16:00 +35°C° 0 mm 3 mps 752 mmHg 16%
    17:00 +34°C° 0 mm 3 mps 752 mmHg 17%
    18:00 +32°C° 0 mm 2 mps 752 mmHg 19%
    19:00 +31°C° 0 mm 2 mps 753 mmHg 20%
    20:00 +30°C° 0 mm 2 mps 753 mmHg 21%
    21:00 +29°C° 0 mm 2 mps 754 mmHg 22%
    22:00 +28°C° 0 mm 2 mps 754 mmHg 22%
    23:00 +28°C° 0 mm 2 mps 754 mmHg 23%

    Tomorrow, 20 March, Wednesday

    Time Temperature Precipitation Wind Pressure Humidity
    00:00 +27°C° 0 mm 2 mps 754 mmHg 24%
    01:00 +26°C° 0 mm 2 mps 754 mmHg 25%
    02:00 +26°C° 0 mm 1 mps 753 mmHg 27%
    03:00 +25°C° 0 mm 1 mps 753 mmHg 28%
    04:00 +25°C° 0 mm 1 mps 753 mmHg 29%
    05:00 +24°C° 0 mm 1 mps 753 mmHg 30%
    06:00 +24°C° 0 mm 1 mps 753 mmHg 31%
    07:00 +26°C° 0 mm 1 mps 754 mmHg 28%
    08:00 +28°C° 0 mm 1 mps 755 mmHg 25%
    09:00 +30°C° 0 mm 1 mps 755 mmHg 22%
    10:00 +31°C° 0 mm 2 mps 755 mmHg 20%
    11:00 +34°C° 0 mm 3 mps 755 mmHg 18%
    12:00 +35°C° 0 mm 3 mps 755 mmHg 16%
    13:00 +36°C° 0 mm 4 mps 754 mmHg 15%
    14:00 +37°C° 0 mm 4 mps 753 mmHg 14%
    15:00 +37°C° 0 mm 5 mps 752 mmHg 13%
    16:00 +36°C° 0 mm 4 mps 752 mmHg 15%
    17:00 +35°C° 0 mm 3 mps 752 mmHg 17%
    18:00 +34°C° 0 mm 3 mps 752 mmHg 18%
    19:00 +33°C° 0 mm 3 mps 752 mmHg 20%
    20:00 +31°C° 0 mm 3 mps 753 mmHg 21%
    21:00 +30°C° 0 mm 3 mps 754 mmHg 22%
    22:00 +29°C° 0 mm 2 mps 754 mmHg 23%
    23:00 +28°C° 0 mm 2 mps 754 mmHg 24%

    Day after tomorrow, 21 March, Thursday

    Time Temperature Precipitation Wind Pressure Humidity
    00:00 +28°C° 0 mm 2 mps 754 mmHg 25%
    01:00 +27°C° 0 mm 2 mps 754 mmHg 26%
    02:00 +27°C° 0 mm 1 mps 753 mmHg 27%
    03:00 +26°C° 0 mm 1 mps 753 mmHg 28%
    04:00 +25°C° 0 mm 1 mps 753 mmHg 29%
    05:00 +25°C° 0 mm 1 mps 753 mmHg 30%
    06:00 +22°C° 0 mm 0 mps 754 mmHg 32%
    07:00 +24°C° 0 mm 0 mps 754 mmHg 29%
    08:00 +28°C° 0 mm 1 mps 755 mmHg 26%
    09:00 +30°C° 0 mm 1 mps 756 mmHg 23%
    10:00 +32°C° 0 mm 2 mps 756 mmHg 20%
    11:00 +35°C° 0 mm 2 mps 755 mmHg 18%
    12:00 +36°C° 0 mm 3 mps 755 mmHg 16%
    13:00 +37°C° 0 mm 5 mps 754 mmHg 15%
    14:00 +39°C° 0 mm 6 mps 753 mmHg 14%
    15:00 +40°C° 0 mm 7 mps 752 mmHg 13%
    16:00 +39°C° 0 mm 6 mps 752 mmHg 15%
    17:00 +37°C° 0 mm 5 mps 752 mmHg 16%
    18:00 +36°C° 0 mm 4 mps 752 mmHg 18%
    19:00 +35°C° 0 mm 3 mps 752 mmHg 19%
    20:00 +33°C° 0 mm 3 mps 753 mmHg 21%
    21:00 +31°C° 0 mm 2 mps 753 mmHg 22%
    22:00 +30°C° 0 mm 2 mps 753 mmHg 23%
    23:00 +30°C° 0 mm 2 mps 754 mmHg 25%

    22 March, Friday

    Time Temperature Precipitation Wind Pressure Humidity
    00:00 +29°C° 0 mm 1 mps 754 mmHg 26%
    01:00 +28°C° 0 mm 1 mps 753 mmHg 28%
    02:00 +27°C° 0 mm 1 mps 753 mmHg 31%
    03:00 +27°C° 0 mm 1 mps 753 mmHg 33%
    04:00 +26°C° 0 mm 1 mps 753 mmHg 35%
    05:00 +25°C° 0 mm 1 mps 753 mmHg 36%
    06:00 +25°C° 0 mm 1 mps 754 mmHg 38%
    07:00 +26°C° 0 mm 2 mps 754 mmHg 36%
    08:00 +27°C° 0 mm 2 mps 755 mmHg 34%
    09:00 +28°C° 0 mm 3 mps 756 mmHg 33%
    10:00 +30°C° 0 mm 2 mps 755 mmHg 29%
    11:00 +34°C° 0 mm 2 mps 755 mmHg 26%
    12:00 +35°C° 0 mm 1 mps 754 mmHg 22%
    13:00 +37°C° 0 mm 2 mps 753 mmHg 20%
    14:00 +38°C° 0 mm 3 mps 752 mmHg 17%
    15:00 +41°C° 0 mm 5 mps 752 mmHg 15%
    16:00 +40°C° 0 mm 4 mps 751 mmHg 16%
    17:00 +37°C° 0 mm 4 mps 751 mmHg 17%
    18:00 +36°C° 0 mm 3 mps 751 mmHg 18%
    19:00 +35°C° 0 mm 3 mps 752 mmHg 19%
    20:00 +34°C° 0 mm 2 mps 752 mmHg 19%
    21:00 +32°C° 0 mm 2 mps 753 mmHg 20%
    22:00 +31°C° 0 mm 2 mps 753 mmHg 21%
    23:00 +30°C° 0 mm 2 mps 753 mmHg 22%

    23 March, Saturday

    Time Temperature Precipitation Wind Pressure Humidity
    00:00 +30°C° 0 mm 2 mps 753 mmHg 23%
    01:00 +29°C° 0 mm 2 mps 752 mmHg 26%
    02:00 +28°C° 0 mm 2 mps 752 mmHg 29%
    03:00 +27°C° 0 mm 1 mps 752 mmHg 31%
    04:00 +26°C° 0 mm 1 mps 752 mmHg 33%
    05:00 +26°C° 0 mm 1 mps 753 mmHg 35%
    06:00 +25°C° 0 mm 1 mps 753 mmHg 36%
    07:00 +27°C° 0 mm 1 mps 754 mmHg 33%
    08:00 +29°C° 0 mm 1 mps 754 mmHg 29%
    09:00 +31°C° 0 mm 1 mps 755 mmHg 26%
    10:00 +34°C° 0 mm 2 mps 754 mmHg 23%
    11:00 +36°C° 0 mm 2 mps 754 mmHg 19%
    12:00 +38°C° 0 mm 2 mps 754 mmHg 16%
    13:00 +38°C° 0 mm 4 mps 753 mmHg 14%
    14:00 +40°C° 0 mm 5 mps 752 mmHg 12%
    15:00 +41°C° 0 mm 7 mps 751 mmHg 10%
    16:00 +40°C° 0 mm 6 mps 751 mmHg 11%
    17:00 +39°C° 0 mm 5 mps 751 mmHg 12%
    18:00 +36°C° 0 mm 4 mps 751 mmHg 14%
    19:00 +35°C° 0 mm 4 mps 751 mmHg 14%
    20:00 +34°C° 0 mm 3 mps 752 mmHg 15%
    21:00 +31°C° 0 mm 3 mps 752 mmHg 16%
    22:00 +30°C° 0 mm 3 mps 752 mmHg 17%
    23:00 +29°C° 0 mm 3 mps 752 mmHg 17%

    24 March, Sunday

    Time Temperature Precipitation Wind Pressure Humidity
    00:00 +28°C° 0 mm 2 mps 752 mmHg 17%
    01:00 +28°C° 0 mm 2 mps 752 mmHg 18%
    02:00 +27°C° 0 mm 2 mps 752 mmHg 20%
    03:00 +26°C° 0 mm 1 mps 752 mmHg 21%
    04:00 +25°C° 0 mm 1 mps 752 mmHg 23%
    05:00 +25°C° 0 mm 1 mps 752 mmHg 24%
    06:00 +24°C° 0 mm 1 mps 753 mmHg 26%
    07:00 +26°C° 0 mm 1 mps 753 mmHg 25%
    08:00 +28°C° 0 mm 1 mps 754 mmHg 24%
    09:00 +30°C° 0 mm 1 mps 755 mmHg 24%
    10:00 +32°C° 0 mm 1 mps 754 mmHg 21%
    11:00 +35°C° 0 mm 2 mps 754 mmHg 18%
    12:00 +37°C° 0 mm 2 mps 754 mmHg 16%
    13:00 +37°C° 0 mm 3 mps 753 mmHg 15%
    14:00 +38°C° 0 mm 4 mps 752 mmHg 14%
    15:00 +40°C° 0 mm 4 mps 752 mmHg 13%
    16:00 +38°C° 0 mm 4 mps 752 mmHg 14%
    17:00 +37°C° 0 mm 3 mps 752 mmHg 14%
    18:00 +36°C° 0 mm 3 mps 752 mmHg 15%
    19:00 +35°C° 0 mm 2 mps 752 mmHg 16%
    20:00 +32°C° 0 mm 2 mps 753 mmHg 17%
    21:00 +31°C° 0 mm 2 mps 753 mmHg 17%
    22:00 +30°C° 0 mm 2 mps 753 mmHg 18%
    23:00 +30°C° 0 mm 2 mps 753 mmHg 19%
    Show more